Weather in Melnik

Czech Republic     50°21′07″N   14°28′29″E
temp.,
°C
wind,
m/s
gust,
m/s
humid.,
%
clouds,
%
prec.,
mm/h
press.,
hPa
HPBL,
m
18 april, sun
sun1823:00+3wnw2290100 0.0 102167
02:00+3wnw119090 0.0 102112
05:00+3wsw1189100 0.0 102013
08:00+4wsw228799 0.0 1020123
11:00+7w227994 0.0 1020614
14:00+9nnw227299 0.2 1019829
17:00+10nnw327075 0.3 1018776
20:00+6n238681 0.4 101945
19 april, mon
mon1923:00+5nnw118894 0.0 102013
02:00+5nnw1189100 0.0 102013
05:00+4nw1190100 0.0 101915
08:00+6nnw1282100 0.0 1020172
11:00+10n2367100 0.0 1019692
14:00+12ne2354100 0.1 10181351
17:00+12ne5667100 0.3 1017832
20:00+8nnw2590100 0.9 1018196
20 april, tue
tue2023:00+7nnw229398 0.1 101725
02:00+6nnw119199 0.1 101725
05:00+6nnw229187 0.0 101743
08:00+7nnw1186100 0.0 1017127
11:00+11n226298 0.5 1016743
14:00+14nne2245100 0.6 10152071
17:00+14n124417 0.0 10141535
20:00+9n12616 0.0 101513
21 april, wed
wed2123:00+7nnw00755 0.0 101610
02:00+5wnw11825 0.0 101610
05:00+4wsw118317 0.0 101610
08:00+7sw12707 0.0 1016169
11:00+13w34575 0.1 1015965
14:00+15wnw355041 0.7 10141784
17:00+14nw675755 0.9 10131512
20:00+10nnw356853 1.1 1015119
22 april, thu
thu2223:00+7wnw347728 0.0 101655
02:00+8wnw4878100 0.0 1017589
05:00+4nw4976100 0.0 1019327
08:00+4nw61064100 0.0 1020881
11:00+8wnw684924 0.0 10211590
14:00+10nw794169 0.0 10212249
17:00+11nw794196 0.0 10212169
20:00+6nw49604 0.0 1023181